Regional Weather Roundup
Issued by NWS Burlington, VT

Home | Current Version | Previous Version | Text Only | Print | Product List | Glossary On
Versions: 1 2 3 4 5 6 7 8 9 10 11 12 13 14 15 16 17 18 19 20 21 22 23 24 25 26 27 28 29 30 31 32 33 34 35 36 37 38 39 40 41 42 43 44 45 46 47 48 49 50
000
ASUS41 KBTV 210730
RWRBTV
VERMONT REGIONAL WEATHER ROUNDUP
NATIONAL WEATHER SERVICE BURLINGTON VT
300 AM EDT SAT OCT 21 2017

NOTE: "FAIR" INDICATES FEW OR NO CLOUDS BELOW 12,000 FEET WITH NO
SIGNIFICANT WEATHER AND/OR OBSTRUCTIONS TO VISIBILITY.

* THESE REPORTS ARE NOT UNDER NWS QUALITY CONTROL AND/OR DO NOT
  REPORT WEATHER SUCH AS PRECIPITATION AND FOG.

VTZ001>019-210800-
_____VERMONT_____


CITY           SKY/WX    TMP DP  RH WIND       PRES   REMARKS
BURLINGTON     MOCLDY    46  39  76 CALM      30.20R
MORRISVILLE    PTCLDY    35  33  92 SW3       30.21R
ST. JOHNSBURY*   N/A     38  37  97 MISG      30.20R
LYNDONVILLE*   FAIR      40  34  78 CALM      30.22R
MIDDLEBURY*    FAIR      46  38  73 CALM      30.22S
RUTLAND*       CLOUDY    42  35  76 SE8       30.24R
SPRINGFIELD    CLOUDY    39  36  89 CALM      30.23R
HIGHGATE*      CLOUDY    46  43  87 S5        30.17S
NEWPORT*       FAIR      41  35  79 SW7       30.19S

_____LAKE CHAMPLAIN_____


CITY           SKY/WX    TMP DP  RH WIND       PRES   REMARKS
COLCHESTER RF*   N/A     55  45  67 S20         N/A

$$

NYZ007-026>031-035-052-083-087-210800-
_____NORTHERN NEW YORK_____


CITY           SKY/WX    TMP DP  RH WIND       PRES   REMARKS
PLATTSBURGH    CLOUDY    51  40  65 SE5       30.17S
SARANAC LAKE   CLEAR     33  32  96 CALM      30.21R
MASSENA        CLEAR     51  38  60 SW8       30.18S
OGDENSBURG*    FAIR      47  40  76 S5        30.18F
POTSDAM*       CLEAR     54  37  54 SW8       30.19S
WATERTOWN      CLEAR     53  38  56 SW5       30.21S
FT DRUM        CLEAR     51  36  57 S9        30.20S
ALBANY         CLEAR     44  36  73 CALM      30.25S
GLENS FALLS    CLEAR     36  35  96 CALM      30.24R

$$
NHZ002-005-011-210800-
_____NEW HAMPSHIRE_____


CITY           SKY/WX    TMP DP  RH WIND       PRES   REMARKS
LEBANON        PTCLDY    39  36  89 CALM      30.21S
KEENE          CLOUDY    37  35  92 E13       30.24R WCI  29
MT WASHINGTON  MOCLDY    36  27  69 NW46        N/A  WCI  20
PLYMOUTH       FAIR      41  36  81 CALM      30.20S
WHITEFIELD     CLOUDY    32  30  92 CALM      30.20S

$$

_____REGIONAL QUEBEC LOCATIONS_____


CITY           SKY/WX    TMP DP  RH WIND       PRES   REMARKS
MONTREAL       PTCLDY    54  41  62 SW7       30.15R
QUEBEC CITY    PTCLDY    34  30  86 VRB2      30.14R
SHERBROOKE     CLEAR     36  34  93 E5        30.17R WCI  32

_____REGIONAL ONTARIO LOCATIONS_____


CITY           SKY/WX    TMP DP  RH WIND       PRES   REMARKS
OTTAWA         CLEAR     48  41  76 S10       30.16S

______KEY______
VSB  - VISIBILITY IN MILES
WCI  - WIND CHILL INDEX
HX   - HEAT INDEX
$$
NNNN



USA.gov is the U.S. government's official web portal to all federal, state and local government web resources and services.